Theta_e
302 298 295 295 298 298 299 299 300 298 297 295 296 295 294 294 295 297 295 296 295 295 295 296 297 297 298 299 295 295 295 295 294 294 294 293 293 293 293 293 293 293 293 294 295 295 295 296 296 297 298 299 299 298 299 300 299 300 301 303 302 304 305 307 308 307 306 303 301 300 299 299 299 298 299 298 299 299 299 300 300 300 300 301 302 303
299 296 297 299 300 299 299 299 298 295 296 295 295 294 294 294 293 296 295 294 296 294 295 296 294 296 297 297 294 294 294 294 293 293 293 292 292 292 292 292 293 293 294 295 294 294 295 295 296 296 296 297 297 297 298 298 298 299 300 301 301 303 303 304 304 303 303 302 301 300 298 297 297 297 297 296 297 297 298 298 299 299 300 301 301 301
295 294 298 300 298 297 295 296 296 296 295 294 293 294 292 294 295 296 295 295 295 294 294 295 294 296 298 295 293 293 293 292 292 292 292 291 291 292 292 292 292 293 293 293 293 294 294 295 295 295 295 296 296 297 297 298 299 299 299 300 301 302 302 302 303 302 301 301 301 299 298 297 295 296 296 295 295 295 295 295 296 297 298 298 299 299
292 296 299 299 297 296 294 294 294 293 294 294 293 291 291 295 293 293 294 293 293 294 294 294 293 296 296 292 292 291 291 290 291 291 291 291 291 291 291 291 292 292 293 292 292 292 293 293 294 294 294 295 295 296 296 296 297 298 299 300 300 301 301 301 300 300 300 299 299 299 298 297 296 294 294 294 293 293 293 292 293 294 295 295 295 296
296 297 297 298 296 296 296 294 293 294 294 295 295 294 294 293 294 294 294 293 294 293 292 293 293 294 298 293 291 290 291 290 290 290 291 291 291 291 291 291 292 291 292 292 292 292 292 292 292 293 293 294 294 294 294 295 295 296 297 299 299 300 300 300 300 300 300 299 298 298 298 297 295 295 293 292 291 291 291 291 292 292 293 294 293 294
298 299 297 296 295 296 296 294 294 296 294 295 295 295 296 296 295 295 294 293 293 293 293 293 290 292 294 293 293 290 290 290 290 290 290 290 290 291 290 291 291 291 291 291 291 291 292 292 292 293 293 293 293 292 293 294 294 296 297 298 298 299 299 299 300 301 302 301 300 298 296 293 292 290 289 289 288 289 290 290 292 292 293 293 293 293
298 296 298 297 296 295 295 296 297 297 295 293 295 297 296 296 295 294 292 292 289 288 292 291 289 288 295 294 292 290 290 289 289 290 290 290 290 290 291 291 291 291 290 291 291 291 291 292 292 292 292 292 292 292 293 293 293 294 295 296 297 297 297 298 298 299 298 297 296 295 293 292 290 288 289 290 290 290 291 292 291 291 292 293 293 293
295 294 295 297 296 296 294 293 295 295 295 293 294 293 296 295 293 293 293 293 293 293 293 289 292 288 289 295 291 291 290 289 289 289 289 290 290 290 290 291 290 291 291 291 290 290 291 291 291 290 291 291 291 292 292 292 293 293 294 294 295 295 295 296 297 296 296 295 294 293 292 291 290 289 288 289 290 291 291 291 291 291 291 292 292 292
296 293 294 294 295 294 295 297 296 298 296 295 291 294 294 295 295 294 293 292 292 290 289 291 292 287 288 293 288 290 289 287 289 289 289 290 290 290 291 290 290 290 290 290 291 290 290 290 290 291 290 291 291 292 292 292 292 293 293 293 293 293 293 293 294 294 294 294 293 292 291 289 290 290 290 290 291 291 291 291 291 291 291 291 292 292
295 296 296 298 295 293 296 291 295 297 295 292 292 293 293 293 293 293 292 292 290 288 286 291 291 287 288 295 291 288 289 290 289 290 290 290 291 291 290 290 290 290 290 290 290 290 290 290 290 290 291 290 291 291 292 292 292 292 292 292 291 291 292 292 292 292 292 292 292 291 291 290 289 290 290 291 291 291 291 291 291 291 291 291 291 291
293 293 294 296 296 297 292 290 290 294 293 293 295 295 293 293 292 291 292 291 288 283 287 292 291 290 285 293 294 290 292 293 292 291 291 291 291 291 291 291 291 290 290 290 290 290 289 290 290 290 290 290 290 291 291 292 291 292 291 291 290 290 290 291 291 291 291 292 292 291 291 291 291 291 291 290 290 291 291 290 290 290 290 291 291 291
294 294 295 295 292 292 295 291 291 290 291 294 293 292 292 290 291 290 288 289 284 284 286 285 287 289 283 290 295 295 290 292 293 290 289 289 290 291 291 290 290 290 289 289 289 289 289 289 289 290 289 290 290 290 290 291 291 291 291 290 289 289 290 290 291 291 291 291 291 292 292 291 291 291 291 290 290 290 290 290 290 290 290 290 290 290
292 294 295 294 294 295 294 293 291 292 291 293 293 292 288 286 285 282 285 281 283 284 285 286 286 285 286 293 293 292 293 291 294 293 291 291 291 291 291 290 290 290 290 289 290 289 289 289 289 289 289 290 290 289 289 290 290 290 290 290 289 289 290 290 291 291 291 291 291 291 291 291 291 291 291 290 290 290 290 290 290 290 289 289 289 288
293 294 293 295 294 295 298 292 289 288 291 291 291 289 287 283 282 280 283 282 282 285 284 286 288 284 291 293 295 294 291 291 291 292 294 293 292 291 291 291 290 290 290 290 290 290 290 290 290 290 290 289 289 289 289 289 289 290 290 290 289 288 289 290 290 290 290 290 290 291 291 291 291 291 291 290 290 290 290 290 289 289 289 288 288 288
287 287 291 292 291 297 296 297 296 294 291 292 296 293 289 288 284 280 282 282 283 284 283 285 283 285 285 290 287 289 288 289 289 290 292 294 294 293 292 291 290 290 289 290 290 290 290 290 290 290 290 289 289 289 289 289 289 289 289 289 288 288 289 289 290 290 289 289 290 290 291 291 291 290 290 290 290 290 290 290 289 289 289 288 287 286
290 291 291 292 290 292 295 294 295 294 292 292 292 294 289 288 292 285 284 284 282 284 282 281 285 290 291 288 289 288 289 288 288 289 290 291 292 292 290 290 289 290 289 289 289 289 290 290 290 290 289 289 289 288 289 288 289 289 289 289 288 288 288 289 289 289 289 289 290 291 290 290 290 290 290 290 290 290 290 289 289 288 288 288 288 288
288 288 290 292 291 291 293 292 293 295 288 290 290 287 291 292 292 283 280 279 279 282 282 287 286 290 292 289 288 289 287 288 287 289 289 290 291 291 290 290 290 290 290 289 289 289 289 289 289 290 289 289 289 289 288 288 289 288 288 288 288 288 288 288 289 289 289 289 289 289 290 290 290 290 289 288 288 289 289 289 289 288 288 288 288 288
288 289 289 291 290 290 290 291 293 291 295 290 286 291 290 293 294 289 284 282 282 280 283 284 284 287 286 285 288 287 287 288 288 288 289 290 290 289 290 291 291 291 290 290 290 290 290 290 289 289 290 289 289 288 288 288 289 289 289 288 287 287 287 288 288 289 289 289 289 289 289 289 289 289 289 289 288 289 289 289 288 289 288 288 288 288
295 287 288 288 289 291 290 292 293 293 292 293 291 297 290 285 284 287 286 279 279 278 281 283 284 286 288 289 287 288 288 289 289 289 288 289 289 289 290 291 291 291 290 289 289 289 289 289 289 289 289 289 289 289 288 288 288 289 289 289 289 288 288 289 289 289 289 289 290 289 289 289 289 289 289 289 289 289 289 288 288 288 288 288 287 287
294 288 287 289 289 291 291 293 287 289 292 292 292 290 290 290 288 285 286 285 285 281 278 281 281 283 289 292 292 293 292 293 290 288 288 290 290 290 291 291 291 290 290 289 289 289 289 289 289 289 289 288 288 288 288 288 289 288 288 288 289 289 289 289 289 289 289 290 289 289 289 289 289 289 289 289 289 288 287 287 287 286 286 286 286 285
291 292 286 287 290 289 286 289 289 290 286 287 289 288 289 288 288 289 287 285 284 282 281 281 280 285 291 294 295 295 295 295 291 290 290 290 291 291 292 292 292 291 290 290 289 289 289 289 288 289 289 289 289 289 289 289 288 289 289 289 289 289 289 289 290 290 289 289 289 288 288 288 288 288 288 287 287 286 285 285 285 285 285 285 284 284
289 288 287 286 286 286 289 289 288 292 294 291 290 288 290 287 285 282 282 286 284 284 281 280 279 286 291 288 291 291 291 293 294 293 291 291 292 291 292 293 293 291 290 290 290 290 289 289 289 289 289 289 288 288 288 289 289 289 288 289 289 290 289 289 289 289 289 289 289 288 287 286 286 286 286 286 285 285 284 284 284 284 284 283 283 283
294 290 289 284 287 288 289 289 287 287 288 290 292 291 293 292 291 286 281 282 281 284 284 283 280 285 289 289 290 290 290 290 292 292 293 292 293 292 293 293 293 292 290 290 290 290 290 290 289 288 288 287 287 288 287 288 288 288 288 289 289 288 288 288 289 289 288 287 286 285 285 285 285 285 285 284 284 283 283 283 282 282 282 281 281 281
292 288 287 287 288 288 288 289 289 288 290 290 290 289 290 289 291 290 289 287 285 284 282 283 279 285 290 290 289 288 288 289 290 292 292 291 291 291 291 290 290 290 289 290 290 289 290 290 289 288 287 287 287 287 287 288 288 288 288 288 288 287 287 287 287 287 286 286 285 285 284 284 284 284 284 283 283 282 281 281 281 280 280 280 279 279
289 289 289 284 283 285 287 288 289 290 290 289 290 290 291 291 290 287 285 286 284 285 285 283 278 285 290 290 289 287 289 289 289 289 289 290 289 290 290 289 289 288 289 288 289 289 289 289 288 287 287 287 287 287 287 287 287 287 287 288 287 287 286 286 286 286 286 286 285 285 284 283 283 283 282 282 281 280 280 279 279 279 278 278 278 278
291 289 288 282 279 277 277 278 281 283 286 289 288 287 287 289 286 286 284 285 282 285 285 283 283 289 290 290 290 288 288 288 288 289 289 291 291 289 289 289 289 289 289 289 289 288 288 288 288 288 288 287 287 287 287 287 287 287 287 287 287 285 285 285 286 286 286 285 284 283 283 282 282 281 281 280 280 279 278 278 277 277 277 277 276 277
288 287 289 288 286 285 286 286 287 290 287 285 285 287 286 288 290 289 289 286 283 284 283 286 287 287 287 289 290 290 288 288 286 287 288 288 289 290 290 290 290 290 290 290 289 289 289 288 288 288 288 288 287 287 287 287 287 287 286 284 284 285 285 285 285 286 285 285 283 282 282 281 281 280 280 279 278 278 277 276 276 275 275 275 275 275
287 287 288 287 286 287 287 286 286 290 287 287 286 285 288 287 287 286 286 285 287 285 282 288 289 285 288 290 290 288 287 287 287 287 287 289 290 290 290 291 290 290 290 290 290 289 288 288 288 288 288 287 287 287 287 287 287 286 285 284 285 285 285 285 285 285 284 283 282 282 281 280 280 279 278 278 277 276 275 275 275 274 274 274 274 274
287 286 288 287 287 287 285 285 286 287 288 288 288 288 286 288 286 284 286 289 287 285 283 286 288 286 289 291 292 291 291 289 289 291 291 291 291 290 289 289 289 290 290 290 289 289 289 288 288 288 287 287 287 286 286 285 285 284 284 285 285 285 285 285 284 283 283 282 281 280 280 279 278 278 277 276 275 274 274 274 273 273 273 273 273 273
288 287 285 286 286 284 284 284 285 286 285 285 287 288 289 288 286 287 288 289 287 287 288 289 287 288 291 291 293 294 294 293 292 291 290 289 289 290 289 289 289 290 290 290 289 289 289 289 289 288 287 287 287 286 285 284 283 283 284 285 285 284 284 284 283 282 282 281 280 279 279 278 277 276 276 275 274 273 273 273 272 272 272 272 272 272
289 285 286 285 285 284 280 281 283 284 284 285 287 288 288 287 287 288 288 288 288 287 289 289 287 287 292 293 294 292 291 291 289 289 290 290 290 289 289 289 290 290 290 290 290 290 290 290 289 289 288 287 287 286 285 285 284 284 284 284 284 283 283 283 282 281 281 280 279 278 278 277 276 275 274 273 272 272 271 271 271 271 271 270 270 270
289 286 283 284 283 282 278 281 281 281 282 283 284 287 286 285 284 286 286 289 287 286 287 287 285 286 291 291 292 291 289 290 290 291 290 290 290 290 289 289 290 290 290 290 290 290 290 290 289 288 287 287 286 286 286 286 285 284 284 284 283 282 282 282 281 281 280 279 278 277 276 275 274 273 272 271 271 270 269 269 269 269 269 269 269 269
287 285 283 283 281 281 277 280 280 281 282 281 282 285 286 286 287 288 289 290 290 290 286 284 285 291 291 290 290 289 289 290 290 290 290 290 290 289 289 289 290 289 289 289 289 289 289 289 289 288 287 287 287 286 286 286 285 284 284 283 282 281 280 281 280 280 279 278 277 276 275 274 273 272 271 270 269 269 268 268 268 268 268 267 268 268
286 285 284 285 281 278 276 278 281 281 274 277 285 287 289 286 286 285 285 287 289 290 288 291 290 287 288 288 289 290 289 289 290 291 291 291 290 289 288 289 289 290 290 290 289 289 288 288 288 288 288 287 287 287 287 286 285 285 283 282 280 280 280 279 279 279 277 276 275 274 273 272 271 270 270 268 268 268 267 267 267 267 267 267 267 267
285 285 285 284 282 277 277 280 278 273 276 283 281 282 284 289 289 287 287 288 289 289 289 289 287 284 287 289 290 290 290 287 285 285 286 288 290 290 288 288 288 288 288 288 287 287 288 288 288 287 287 287 286 286 285 285 285 283 281 280 279 279 279 279 278 277 276 275 274 273 272 271 270 269 268 267 267 266 266 266 266 266 267 266 266 266
284 285 283 282 281 278 276 278 271 274 282 279 280 280 281 283 283 285 284 284 284 288 288 288 289 291 289 288 288 287 286 284 284 284 285 286 287 288 287 287 288 287 287 288 287 287 287 287 287 287 286 286 285 285 285 284 283 281 280 279 279 278 278 277 277 276 275 273 272 271 271 269 269 268 267 267 266 266 266 266 265 265 266 265 265 266
288 286 285 282 284 276 278 277 277 283 282 282 278 280 281 283 282 283 280 284 285 286 288 288 289 289 289 287 285 283 281 282 283 285 286 286 286 287 288 289 289 288 288 288 288 288 287 287 286 286 285 284 284 284 283 282 281 280 278 277 277 277 276 276 276 275 273 272 272 271 270 269 268 267 266 266 265 265 264 265 264 265 265 264 264 264
287 286 286 282 281 283 278 276 277 276 272 279 283 284 284 284 287 287 284 281 283 285 288 288 287 288 286 284 283 281 282 282 281 284 286 285 286 286 286 285 285 285 286 286 285 284 284 285 285 285 284 283 283 283 282 281 280 279 277 276 276 275 275 275 275 274 273 272 271 270 269 268 266 266 265 264 264 263 264 264 264 264 264 263 263 263
284 286 285 284 282 281 278 275 275 273 276 283 282 280 281 282 285 284 281 277 282 281 283 283 283 284 283 284 281 281 281 279 280 284 286 284 285 285 284 284 284 284 284 284 284 283 283 283 284 283 283 282 281 281 280 279 278 277 277 276 275 275 275 275 275 273 272 271 270 269 267 266 265 265 264 263 263 262 262 263 263 263 263 263 263 262
282 283 283 281 280 281 279 277 275 279 279 280 277 280 281 281 284 283 274 275 280 279 279 281 283 283 283 282 281 281 281 278 280 285 285 285 285 283 283 283 283 283 282 282 282 283 283 282 281 281 281 281 281 280 278 278 277 277 276 275 275 274 274 275 274 273 271 270 268 267 266 265 263 263 263 263 262 262 262 262 262 262 262 262 262 262
279 278 281 278 280 280 281 278 280 280 283 278 279 280 280 281 283 275 272 278 280 280 279 281 282 283 282 280 282 280 283 285 285 284 282 281 282 281 282 282 282 283 283 282 282 282 281 282 282 282 281 282 280 277 277 276 277 276 276 274 274 273 275 274 272 270 269 268 267 265 264 264 263 261 261 261 261 262 261 261 262 261 261 260 261 261
275 277 277 280 278 279 280 277 278 282 284 280 280 281 280 281 274 274 281 283 282 281 280 281 283 284 282 282 282 284 286 286 282 282 282 282 283 283 282 281 281 281 281 282 281 281 281 281 282 281 281 280 277 276 275 276 276 276 275 273 273 274 272 270 270 269 267 266 265 264 262 262 261 261 260 260 260 260 260 261 260 260 259 261 260 259
277 276 275 277 279 278 277 276 276 272 280 280 280 279 280 278 280 283 282 281 282 282 281 280 282 283 283 282 283 284 284 282 283 282 283 282 282 282 282 281 281 281 281 280 280 280 280 280 280 280 280 277 275 274 274 275 275 275 273 272 273 271 270 269 268 267 266 265 263 262 261 260 260 259 259 258 259 258 258 259 259 259 259 259 259 259
283 276 275 278 283 275 276 273 275 282 280 281 283 280 282 284 286 284 284 282 281 281 282 281 281 282 283 283 283 282 283 282 281 282 282 282 281 281 280 281 282 282 281 281 282 280 279 280 280 279 277 274 273 273 274 274 274 273 272 273 271 269 268 267 266 265 264 262 262 260 260 259 258 258 258 258 258 258 258 258 259 259 259 259 259 260
280 278 279 277 282 278 277 281 281 281 283 283 286 286 286 287 285 284 285 285 283 282 281 282 283 282 281 282 283 282 282 282 282 283 282 283 283 282 282 281 281 281 281 281 280 279 278 280 279 277 274 272 271 272 272 273 273 271 271 271 268 267 266 265 263 262 262 261 260 259 259 258 258 258 258 258 258 258 259 259 258 259 260 259 259 259
278 278 277 278 278 280 279 280 281 280 281 283 284 285 283 283 281 282 284 284 284 285 282 283 284 283 281 281 281 281 281 282 282 282 282 282 282 283 282 281 280 281 280 280 279 277 277 278 277 275 272 271 270 270 270 271 273 270 271 269 267 267 265 263 261 260 260 259 259 259 258 258 258 257 257 257 259 258 259 258 258 259 259 259 259 259
277 277 277 277 278 277 274 278 279 281 281 281 284 284 283 283 282 283 283 283 285 284 282 282 283 283 282 281 281 282 282 283 282 282 282 282 281 282 281 280 281 280 279 278 279 276 275 275 274 273 271 270 269 269 268 268 269 271 269 266 266 265 263 260 260 260 259 259 259 258 257 258 260 260 259 257 259 259 259 259 259 259 258 259 259 259
275 280 276 277 276 276 276 278 279 279 279 281 282 283 283 283 283 282 284 284 284 283 283 283 282 281 281 280 281 281 282 283 282 282 282 282 281 281 281 280 280 280 279 280 279 275 275 274 274 273 271 270 269 268 267 266 266 266 265 265 264 262 260 259 260 260 259 258 259 259 258 258 257 257 260 259 259 259 260 259 259 258 259 259 260 259
279 279 272 277 274 276 276 277 277 278 280 281 281 281 283 284 284 283 283 282 282 281 282 281 282 282 281 282 282 281 281 282 282 282 282 282 281 281 280 280 280 281 280 278 276 274 275 274 274 274 272 272 270 267 266 264 263 263 263 263 261 260 260 259 259 259 258 258 258 258 258 259 258 259 259 259 258 259 259 259 259 259 259 260 260 260
277 275 277 275 272 272 274 277 278 275 276 280 281 282 282 282 283 283 283 281 281 281 282 281 281 281 281 282 282 281 280 281 282 282 280 281 282 282 281 280 280 279 279 278 275 273 274 274 274 273 272 272 268 265 264 263 262 261 262 261 260 260 259 259 258 258 258 258 258 258 258 259 258 258 258 258 258 258 258 259 261 260 260 260 263 265
278 279 277 275 275 273 279 281 281 282 282 284 284 283 283 283 282 281 282 282 282 282 283 282 282 281 279 279 280 281 280 281 281 282 280 281 281 281 281 281 279 278 277 275 272 270 271 272 271 272 270 269 266 264 263 262 261 261 261 260 259 259 259 258 259 259 259 258 259 258 259 259 258 258 258 258 258 258 258 259 260 263 264 266 265 266
Wind_Speed
1 7 7 9 9 9 10 12 12 2 2 2 1 3 7 8 10 4 2 2 1 3 10 11 10 12 11 5 5 3 2 3 2 2 2 1 2 2 2 3 4 4 4 4 4 6 6 7 7 6 6 6 8 9 9 10 10 10 8 8 9 6 6 6 6 6 7 8 8 9 10 10 8 8 9 10 10 9 9 11 11 11 10 10 9 9
2 8 11 12 3 4 7 7 4 1 2 5 6 6 8 7 10 1 2 4 2 3 5 3 6 11 13 2 4 3 4 2 2 1 2 2 2 2 2 3 3 3 3 3 4 5 6 6 7 6 6 8 9 10 10 11 9 9 9 10 7 6 7 8 8 8 9 8 7 9 8 8 8 8 9 9 9 9 9 11 11 10 10 10 10 10
7 11 10 8 6 4 3 3 4 9 8 4 7 5 6 9 5 8 6 2 2 4 8 2 7 10 5 4 4 3 3 3 2 1 2 1 1 2 2 3 3 3 3 4 5 5 5 6 7 6 6 7 8 8 9 8 8 9 9 8 7 7 8 8 8 9 9 9 9 10 8 9 10 10 9 9 9 9 10 11 11 10 10 10 11 11
6 9 13 3 5 4 2 3 5 3 4 6 5 6 10 1 1 5 4 2 3 4 4 3 8 11 3 4 4 3 2 4 3 3 3 1 2 2 2 2 2 3 3 4 4 5 6 6 6 6 7 7 7 7 8 7 8 7 7 7 8 8 9 9 9 11 12 13 13 12 11 11 10 9 9 11 10 11 12 12 11 11 11 11 11 11
9 4 3 6 6 7 9 5 6 5 8 7 9 10 10 4 7 9 3 0 2 3 1 5 9 11 6 4 4 4 3 4 3 4 3 3 2 2 2 2 1 3 3 4 5 5 5 6 7 7 7 6 8 8 8 8 7 5 7 7 8 8 8 8 9 10 11 11 13 11 11 11 11 10 9 10 11 10 11 11 11 11 11 11 11 11
9 3 5 7 5 7 8 6 9 7 8 6 10 12 10 7 10 8 1 5 5 5 4 2 5 4 3 3 3 5 4 4 3 4 4 3 3 3 4 3 3 2 2 3 4 4 5 6 6 7 8 8 7 8 7 7 7 7 6 7 8 7 7 6 6 5 4 6 8 8 9 9 9 10 9 9 9 9 9 10 9 11 11 11 11 11
3 4 6 6 6 6 7 8 4 9 8 5 4 10 13 11 6 3 4 4 4 5 2 2 5 3 3 3 5 5 5 5 4 4 4 4 4 4 4 4 4 4 4 4 4 4 5 5 6 7 7 7 8 7 6 6 7 7 7 8 7 7 6 6 6 6 6 8 8 10 11 10 10 11 8 7 7 8 8 8 10 10 10 11 11 11
5 3 4 2 6 7 5 8 7 10 6 7 3 2 4 7 8 9 7 8 4 3 1 3 3 6 7 4 4 5 5 5 5 5 6 5 6 5 5 4 4 4 3 4 4 4 4 4 5 7 6 6 6 5 6 6 7 8 8 8 8 7 8 7 6 8 7 9 9 11 11 10 10 11 10 9 8 8 7 9 10 9 9 10 10 10
6 6 7 7 7 6 9 6 9 12 9 1 1 2 4 5 5 6 6 5 1 2 6 6 4 3 6 3 3 3 4 5 7 8 8 8 7 7 6 5 4 3 3 3 4 4 4 4 4 5 6 6 6 5 6 6 6 7 8 9 9 10 9 8 9 9 9 9 9 10 10 12 9 10 9 8 7 8 8 10 9 9 9 9 10 10
2 2 7 8 7 8 3 3 5 11 11 2 5 7 6 6 5 4 3 3 2 4 7 7 8 5 8 5 3 3 5 7 8 10 10 10 10 9 8 6 5 4 3 3 3 3 4 4 4 5 6 7 5 5 5 6 6 7 7 9 11 10 8 8 9 9 10 10 9 11 10 14 10 8 8 8 8 8 7 10 9 9 9 8 9 10
2 1 2 3 7 1 6 4 3 3 4 8 6 7 6 5 4 3 1 2 1 5 9 1 9 7 5 4 7 6 4 3 9 7 7 9 9 9 8 8 7 6 5 4 4 3 4 3 4 4 7 7 6 5 6 6 7 7 8 9 12 10 8 8 8 9 10 9 9 10 11 12 12 10 9 9 9 8 8 9 9 9 9 9 9 9
2 2 2 1 3 4 5 7 5 2 2 4 3 5 6 3 3 2 1 2 4 5 4 3 2 3 7 3 2 2 3 3 11 14 14 14 14 11 10 8 8 7 6 5 5 5 5 5 5 5 7 7 6 6 6 6 6 7 7 9 13 10 9 8 8 9 10 10 10 11 11 12 10 9 8 10 10 9 10 9 9 8 8 8 8 8
5 7 2 2 2 4 6 8 4 3 2 2 4 5 6 3 2 4 3 5 8 5 2 3 3 3 12 8 3 2 4 2 4 7 15 16 15 13 11 10 8 7 7 6 6 6 6 6 6 6 7 6 6 6 6 6 6 7 8 9 13 11 9 9 9 10 10 10 10 10 10 10 9 10 10 9 9 8 8 8 8 8 8 7 8 8
4 4 3 4 3 5 8 8 6 4 7 5 8 7 5 4 4 5 3 2 3 1 1 3 2 5 3 6 2 4 5 2 1 1 8 15 16 15 12 10 8 7 7 7 6 6 6 6 6 6 6 6 6 6 6 6 6 6 7 8 12 10 8 8 9 10 11 10 9 9 9 9 8 9 8 8 8 8 7 7 8 8 7 7 7 7
5 4 9 14 7 8 11 8 6 4 12 11 1 6 3 2 2 5 4 5 1 1 2 2 2 3 5 2 3 3 2 1 1 2 1 6 10 11 9 8 8 8 8 7 6 6 6 6 6 6 6 6 6 7 6 5 6 7 8 9 11 11 9 9 9 9 10 9 8 8 7 7 7 8 8 7 7 7 8 7 7 7 6 6 6 5
9 4 4 5 3 1 11 1 3 7 5 2 1 3 1 4 1 4 2 2 0 1 3 3 4 1 3 2 1 1 1 1 1 3 4 7 7 8 8 10 10 9 9 8 7 7 6 6 6 5 5 6 6 7 6 7 6 7 7 9 9 10 9 8 8 8 8 8 7 8 9 8 8 7 7 7 6 6 6 6 6 6 5 5 4 3
3 7 4 1 1 1 1 2 0 2 6 6 5 6 4 4 2 4 2 3 1 0 8 4 4 4 1 2 3 2 1 3 2 5 7 9 9 9 9 10 10 9 9 8 8 7 7 6 5 5 6 6 6 6 6 7 6 8 8 9 10 9 8 8 8 8 8 8 8 8 8 8 8 8 8 7 7 6 5 5 5 5 4 4 4 3
3 2 2 1 4 1 2 3 2 4 1 9 5 6 3 1 3 1 4 2 1 6 4 4 8 7 6 6 5 4 4 6 6 8 8 9 10 12 12 11 10 9 9 8 7 7 8 7 7 6 6 6 7 7 7 7 6 6 6 8 10 9 9 8 7 7 7 8 8 8 7 7 7 7 7 6 6 5 5 4 4 4 4 5 4 3
3 2 3 1 2 2 1 3 5 3 4 2 0 2 5 3 4 2 0 5 3 5 5 5 6 7 9 6 5 7 10 11 11 9 9 11 13 15 12 12 10 9 8 8 9 8 7 7 7 7 7 6 6 7 7 7 6 6 5 6 8 9 8 8 6 6 6 6 5 5 6 6 6 5 5 5 5 5 5 6 5 5 4 4 4 4
1 4 2 0 2 1 2 5 9 6 0 2 1 3 3 3 1 6 3 1 0 5 0 3 6 6 9 8 12 12 13 12 11 10 14 17 17 14 14 13 13 12 10 10 10 9 8 8 9 9 9 9 9 8 7 8 6 8 7 6 6 7 7 7 7 7 7 6 6 6 5 5 5 5 5 4 5 5 6 5 5 4 4 4 3 3
4 2 4 3 2 1 6 7 7 11 9 4 5 5 2 0 2 2 1 2 2 3 4 7 7 2 6 2 8 8 9 11 15 15 12 13 14 16 15 15 13 11 11 11 10 10 11 10 8 8 8 7 7 7 7 7 8 8 6 7 7 9 8 7 6 6 6 5 6 6 6 6 5 6 6 6 6 6 5 4 4 3 3 2 3 3
3 3 6 5 4 7 2 4 4 2 2 7 12 10 11 7 5 5 6 3 1 3 4 2 9 1 2 3 4 5 4 2 7 7 10 13 15 16 14 12 11 11 11 11 11 10 10 10 9 8 7 6 7 8 9 8 7 7 7 7 7 7 6 6 6 5 6 5 5 6 6 6 5 5 5 6 6 5 4 3 3 3 3 3 3 3
1 2 3 6 5 4 2 1 1 2 1 2 3 6 8 7 6 6 10 4 1 3 3 1 3 2 3 2 4 3 3 3 4 7 6 7 10 11 9 8 7 7 9 9 9 9 9 9 9 9 10 10 10 9 9 8 7 7 7 7 6 7 7 6 5 5 4 5 5 6 5 5 5 6 6 6 5 5 4 4 4 3 3 3 2 2
4 2 4 3 4 1 1 2 2 1 0 2 2 2 3 9 9 7 4 3 6 5 3 3 4 1 2 1 2 3 4 3 3 6 7 4 3 4 5 6 5 6 5 7 7 7 8 8 8 8 9 9 10 10 10 8 8 8 8 8 7 8 7 6 5 5 5 5 6 6 6 6 6 6 5 5 5 5 4 3 3 3 3 3 3 3
6 4 7 5 2 1 2 2 2 1 2 3 3 4 3 2 4 2 4 1 4 8 7 6 14 2 4 2 1 1 2 2 3 4 4 5 3 5 6 7 6 6 7 9 10 11 9 9 10 10 10 11 10 9 9 9 9 9 9 8 7 6 5 5 5 5 6 7 7 6 6 6 5 5 5 5 5 5 4 3 3 3 3 4 4 4
5 2 9 11 13 13 14 15 13 9 9 3 2 2 5 8 9 4 4 3 7 3 10 10 11 2 1 2 2 1 2 2 1 4 5 5 8 8 8 9 10 10 11 12 11 11 13 12 10 11 12 9 9 9 9 9 9 8 7 7 5 6 5 5 5 6 7 7 7 6 6 5 5 5 5 5 5 4 4 4 4 4 4 4 5 4
2 1 3 5 5 4 1 5 5 7 5 7 4 7 8 6 10 7 1 7 12 4 8 11 6 5 7 6 4 4 3 3 3 3 7 8 7 7 9 9 10 11 12 14 14 10 9 10 15 15 12 11 10 10 9 9 9 7 6 5 5 5 6 6 6 7 7 7 7 6 5 5 4 4 4 4 4 4 4 4 3 4 3 3 3 4
2 2 6 5 4 2 3 2 4 3 5 6 7 8 9 11 9 11 11 10 6 3 14 5 11 10 9 10 6 4 5 4 2 3 4 5 6 8 9 9 9 8 9 7 8 11 14 15 13 12 12 11 10 9 9 8 8 8 8 7 6 6 6 5 7 7 7 7 6 6 5 5 4 4 4 4 4 3 3 2 2 3 3 3 4 4
3 2 1 5 6 2 3 1 4 3 3 5 11 11 12 13 10 15 15 8 6 10 11 9 11 7 9 10 8 9 9 5 9 8 8 6 3 5 6 8 11 13 12 11 12 13 14 13 13 12 12 12 12 12 10 8 7 8 6 6 7 7 7 7 8 7 7 6 6 5 5 5 4 3 4 3 3 2 2 2 2 2 3 3 3 3
2 3 2 2 2 2 1 1 2 6 2 2 6 9 11 13 13 13 12 8 10 11 13 9 6 13 7 8 8 7 3 4 2 2 2 4 5 6 8 10 12 12 12 13 13 13 11 11 10 12 12 12 13 12 10 8 7 7 8 8 8 7 7 7 7 8 7 6 6 5 5 4 4 3 3 3 2 2 2 2 2 2 2 3 3 3
3 2 6 2 3 3 1 1 1 0 2 4 10 10 9 7 9 12 13 12 10 14 15 11 13 17 4 11 7 3 3 2 2 4 7 6 6 8 10 11 11 12 11 10 9 9 9 10 11 11 12 12 12 12 12 10 8 7 8 8 8 8 8 7 8 7 7 6 6 5 5 4 4 3 3 3 2 2 2 2 2 2 2 2 3 3
2 2 3 1 3 3 1 3 3 2 2 8 14 14 9 9 11 14 12 12 11 12 9 10 13 12 4 6 4 5 4 6 8 7 6 6 7 8 9 10 10 9 9 10 9 9 9 10 11 11 13 14 14 14 12 11 10 10 9 9 9 8 8 7 7 7 7 6 6 5 5 4 4 3 3 3 2 1 1 1 2 2 2 2 3 3
4 4 4 2 3 3 1 1 3 1 3 11 18 10 15 15 15 12 12 11 14 11 11 12 13 8 4 7 7 8 9 8 6 6 7 5 6 8 10 9 7 8 9 8 9 9 9 10 11 12 13 13 13 12 11 10 11 11 10 10 9 8 8 7 7 7 7 6 6 5 4 4 4 3 3 3 2 1 1 1 2 1 2 2 3 3
3 5 2 2 4 1 2 1 2 3 8 13 2 2 13 16 16 14 15 15 13 11 9 11 5 4 5 7 10 10 10 9 7 4 2 5 7 8 7 7 8 9 8 7 7 7 8 7 8 9 12 13 12 11 10 11 11 9 8 8 9 9 8 8 7 7 7 6 6 5 5 4 4 3 3 2 2 0 1 1 1 2 2 2 3 3
7 5 4 1 4 3 2 4 3 8 14 1 1 1 3 5 13 17 15 9 11 12 13 12 5 5 8 9 8 6 2 1 2 3 5 7 7 4 6 9 10 9 8 7 6 7 8 9 9 9 9 9 9 8 9 8 7 8 8 9 9 8 9 7 8 7 7 6 6 5 4 4 4 3 3 2 1 1 1 1 1 2 2 2 3 3
5 7 2 2 2 3 3 7 5 10 1 3 2 1 1 3 1 1 4 2 4 10 12 12 12 10 8 7 4 1 1 1 3 6 7 7 6 6 8 9 9 8 8 7 8 7 8 8 10 10 10 8 9 9 9 10 9 9 9 8 8 8 7 8 7 7 7 6 6 6 5 4 4 3 3 3 2 1 1 1 1 2 2 2 3 3
9 3 4 5 4 5 4 8 12 6 13 7 3 4 8 8 9 11 7 9 11 9 10 12 12 10 6 1 2 2 1 2 5 8 10 11 9 10 11 8 5 6 6 5 6 5 4 4 5 7 8 8 9 9 9 9 10 9 9 9 7 8 7 7 7 7 7 6 6 6 5 4 4 3 3 3 2 2 1 1 2 2 2 3 3 3
4 9 6 6 6 7 5 10 6 6 10 9 6 3 1 2 8 6 4 2 4 7 8 11 12 7 3 2 2 2 2 3 7 7 5 10 10 9 5 2 1 2 3 4 4 3 5 6 6 7 8 9 8 8 8 10 10 10 10 9 8 9 8 8 8 7 7 7 6 6 5 4 4 4 3 3 2 1 1 1 2 1 2 3 4 4
1 1 1 10 6 6 9 10 10 9 8 1 3 3 2 2 9 6 3 4 2 9 6 2 4 3 3 4 4 5 2 3 5 6 4 4 5 6 6 6 5 5 3 3 5 6 7 7 8 9 8 9 10 9 9 10 11 10 9 9 9 9 9 9 8 8 7 7 6 5 5 4 4 4 3 3 2 1 1 1 1 2 2 3 3 4
5 4 5 7 11 10 7 7 9 5 6 2 2 4 5 2 6 2 4 2 4 5 5 7 8 6 4 4 7 5 4 3 8 4 2 3 4 6 7 6 6 5 4 3 3 3 6 8 9 8 9 10 10 10 11 10 10 10 10 9 8 9 10 9 8 7 6 6 6 5 4 4 4 4 3 3 2 1 1 1 1 2 2 3 3 4
5 2 6 13 10 11 13 8 3 4 1 1 6 5 4 2 1 3 9 3 7 6 4 5 8 7 5 6 8 5 9 8 0 3 2 2 3 3 3 0 0 2 5 5 5 6 6 7 8 11 12 9 10 10 10 9 9 10 9 9 9 10 8 7 7 7 7 6 5 5 4 4 4 4 3 2 2 1 1 1 1 2 3 3 3 3
0 2 1 3 9 10 10 7 7 5 2 9 0 4 4 3 4 5 0 3 10 8 6 9 8 6 7 9 8 9 6 2 2 1 2 4 3 2 3 4 3 2 1 2 4 6 5 6 6 4 4 5 8 9 9 8 11 9 8 8 8 8 7 7 7 7 6 6 5 5 4 4 3 3 3 3 2 1 1 1 1 2 3 3 3 5
10 7 8 9 3 1 1 6 2 9 3 7 9 5 4 3 2 4 4 0 1 3 8 7 8 6 8 7 9 9 4 3 4 3 3 3 3 3 4 6 7 7 6 5 5 7 7 6 7 8 7 6 8 7 7 10 12 10 8 9 7 7 8 8 8 7 6 5 5 5 4 4 4 3 3 2 2 1 1 2 1 2 3 4 4 5
5 5 3 4 6 5 8 9 7 1 7 9 14 6 4 5 3 6 4 2 4 4 5 5 6 7 8 9 7 8 8 5 3 4 4 4 4 2 2 4 4 3 4 5 5 8 7 7 6 6 6 5 7 6 8 12 12 11 10 10 7 8 7 7 7 7 6 5 5 5 4 3 3 3 2 2 1 1 2 2 2 3 3 3 3 4
8 9 3 5 5 7 6 2 2 1 10 11 5 2 6 6 5 7 3 2 5 4 4 3 5 6 9 9 8 5 4 6 9 8 8 8 6 6 7 8 8 8 9 9 9 7 6 10 11 8 6 6 7 6 8 9 12 12 12 7 8 8 9 8 7 6 6 5 5 4 3 3 2 2 1 1 2 2 2 2 2 3 3 3 3 3
5 1 1 1 2 1 3 3 2 2 4 7 4 1 2 3 1 2 4 3 3 3 7 6 5 5 6 7 5 5 6 7 6 7 8 8 8 8 6 3 4 5 5 4 5 8 9 5 4 7 9 6 8 7 7 7 8 15 10 8 8 8 8 8 8 6 5 5 4 4 4 3 2 2 2 2 2 3 3 2 3 3 3 3 3 3
4 2 1 3 1 4 4 4 6 6 3 6 7 3 2 0 3 3 3 4 3 3 3 3 2 3 5 6 8 8 8 8 7 7 7 7 8 8 7 9 8 9 10 10 11 9 7 8 9 11 13 12 9 8 7 9 7 4 6 8 8 8 8 8 7 6 6 5 4 4 3 3 2 2 3 4 3 3 3 3 3 3 4 3 3 3
3 8 2 3 0 2 1 4 3 4 2 2 3 3 5 6 5 5 5 2 1 1 3 4 3 3 3 4 9 8 9 7 6 8 7 8 8 8 8 9 10 7 9 8 6 11 10 11 14 14 14 13 9 8 7 7 8 6 7 7 8 8 8 7 7 7 6 5 4 4 4 3 3 3 3 3 3 2 3 3 3 3 4 4 3 3
3 10 4 5 3 2 3 1 1 2 3 5 5 6 5 3 5 6 7 6 4 5 5 4 5 5 6 9 7 7 7 9 9 9 9 8 7 7 8 10 10 10 8 7 8 11 12 14 15 15 15 13 7 7 8 9 6 6 8 7 8 9 9 7 6 5 5 5 3 3 3 3 3 4 3 2 2 3 4 3 3 4 5 6 6 5
4 5 4 4 3 3 7 7 8 4 2 7 9 10 9 9 8 7 4 3 5 8 7 7 8 7 7 7 7 7 9 10 10 8 8 10 9 10 9 9 9 8 8 6 6 9 9 8 10 10 11 6 6 8 11 9 6 6 6 7 7 8 9 7 6 5 5 4 4 3 3 3 4 4 3 2 2 2 4 7 10 8 6 6 9 13
10 10 9 7 6 5 8 10 9 8 7 6 6 9 11 9 7 8 8 9 9 8 7 7 8 6 8 10 9 9 9 10 12 9 8 9 10 10 9 8 8 8 8 5 7 8 11 10 8 7 8 8 9 9 10 8 7 6 6 7 7 8 7 7 6 5 4 4 4 4 4 4 3 3 2 2 2 2 3 4 3 9 13 12 11 12
Wind_Direction
348 192 194 214 221 201 204 209 232 324 45 63 201 236 254 257 262 261 256 116 106 277 253 252 259 263 260 269 88 118 122 120 129 122 99 76 81 73 66 71 61 57 43 16 16 19 13 17 16 18 23 34 46 39 37 42 38 37 42 57 55 44 46 74 84 79 84 86 84 69 66 73 61 59 58 54 46 45 41 35 36 34 31 27 30 32
227 215 223 228 231 201 216 218 229 274 231 246 261 249 258 217 261 259 294 106 112 275 276 190 260 256 260 179 82 124 176 132 91 111 107 88 77 76 77 77 65 64 73 49 47 33 30 26 25 31 35 32 46 36 41 44 40 42 46 52 53 51 61 62 70 78 71 64 71 86 77 80 67 63 61 61 51 48 45 43 41 41 37 36 35 31
203 217 228 226 84 85 69 196 221 232 237 204 245 258 259 256 269 271 257 135 233 187 266 301 274 271 242 112 102 85 100 84 70 34 70 77 112 113 101 94 96 101 87 76 63 47 44 37 35 44 43 47 50 49 49 46 52 49 53 51 55 57 61 58 65 76 80 80 79 85 90 87 84 70 72 73 68 61 59 52 48 46 43 42 42 37
223 232 237 140 130 153 125 145 170 189 230 231 214 233 245 283 303 275 126 124 140 246 319 4 296 281 181 103 99 78 86 100 88 94 91 76 113 118 102 93 118 116 113 87 61 57 47 44 44 43 43 41 45 46 47 40 46 50 53 53 62 63 67 70 71 82 84 85 87 85 88 84 84 88 82 77 69 63 60 54 50 46 45 45 47 42
216 78 33 154 170 192 223 163 186 210 238 203 230 241 254 214 235 238 299 263 157 222 241 269 276 271 228 183 158 114 117 126 128 137 147 123 109 95 107 118 55 117 107 98 87 63 53 52 42 41 39 43 48 44 38 32 37 46 49 52 60 66 68 73 82 91 98 101 97 99 97 95 92 80 73 71 63 60 60 60 49 45 45 47 49 46
248 118 114 127 169 203 217 208 210 218 251 231 213 231 248 247 252 231 292 302 268 251 142 250 276 246 136 197 157 143 167 162 146 179 159 149 142 159 159 138 130 101 54 89 82 70 63 63 61 52 49 51 53 49 38 39 43 51 57 60 65 68 66 67 58 57 90 101 110 115 107 95 83 73 62 60 65 63 62 64 62 55 51 51 50 48
257 98 182 183 169 177 209 233 185 194 248 250 258 199 225 237 243 214 195 178 245 259 95 269 255 279 149 178 165 160 172 157 155 189 168 166 166 175 161 161 152 138 126 100 99 96 94 82 81 67 59 58 63 53 50 56 57 61 64 62 64 69 68 59 68 71 80 79 79 82 84 87 91 96 80 78 76 79 76 75 70 65 56 52 54 50
148 152 138 190 188 185 202 233 190 188 219 245 82 178 188 202 206 211 197 215 272 21 192 187 249 269 289 277 107 146 168 168 172 183 183 183 174 177 168 164 152 142 132 121 107 100 89 84 86 85 74 70 68 65 67 66 66 67 67 72 73 73 70 63 71 70 72 87 85 87 88 87 87 88 97 89 82 78 81 79 74 72 64 57 55 55
179 158 176 164 195 192 221 235 134 188 205 275 64 185 167 193 191 163 195 212 290 330 267 181 134 255 243 233 102 165 195 193 198 186 189 181 179 175 174 166 154 144 130 132 131 119 112 102 90 92 85 78 73 63 66 69 73 77 77 78 80 77 74 67 67 76 74 84 90 93 97 93 87 92 93 93 88 84 81 80 74 72 71 66 58 54
299 213 193 177 165 210 157 21 183 176 213 112 123 94 88 85 84 162 198 185 154 233 249 221 169 247 267 199 187 138 257 227 190 187 187 181 177 177 175 164 160 154 154 144 132 130 116 104 94 88 95 85 74 71 75 76 80 79 80 80 79 73 70 69 72 80 82 82 90 90 91 97 98 97 95 91 89 85 79 76 71 68 64 60 59 55
22 258 333 173 208 102 106 54 20 13 42 126 171 110 98 86 104 111 80 157 169 239 239 202 177 225 282 181 223 178 213 195 160 169 170 175 177 182 175 169 168 171 164 164 154 138 118 105 109 107 100 96 91 80 82 76 76 75 78 83 80 76 78 76 80 82 79 79 83 88 89 92 97 96 97 94 85 82 77 74 70 66 63 59 56 54
155 62 185 250 54 110 109 89 42 52 126 167 165 150 133 100 144 160 133 206 237 247 105 27 218 215 217 224 213 124 83 212 167 171 174 178 186 182 175 174 175 170 168 165 161 149 143 133 121 122 114 111 105 99 90 85 85 87 88 94 91 82 82 83 83 81 79 80 79 83 86 88 87 90 90 87 84 77 74 70 70 67 64 59 56 51
227 208 116 76 260 154 148 107 81 105 195 207 161 163 188 165 171 201 164 218 207 243 105 34 157 189 234 254 69 123 170 185 196 172 174 177 178 176 175 175 173 173 171 176 172 163 163 153 147 134 127 123 112 103 100 97 96 95 93 96 95 87 83 82 84 84 83 83 82 85 87 86 84 84 85 83 81 75 73 69 66 62 59 54 52 46
232 98 174 173 138 237 185 164 140 168 188 197 190 175 184 199 202 256 194 342 310 96 26 67 113 254 20 258 277 168 121 76 147 323 175 175 174 174 172 173 172 176 180 181 177 175 167 161 153 146 137 125 119 114 112 110 104 98 97 96 96 95 89 91 89 89 89 84 86 88 92 93 93 91 87 84 81 76 74 71 67 64 63 60 56 51
230 218 205 159 216 144 203 221 176 151 166 199 33 194 238 204 181 223 183 229 274 68 104 249 197 227 172 166 15 40 35 3 332 294 278 172 171 165 160 161 170 178 187 185 182 180 173 166 161 153 141 133 128 129 124 121 115 108 104 105 106 106 100 98 97 98 98 97 95 96 97 98 95 91 86 81 79 79 79 76 75 70 67 68 62 57
229 285 44 5 349 119 188 4 85 101 91 97 242 18 300 234 15 271 19 325 74 221 193 184 240 297 243 100 69 15 112 224 169 212 192 188 169 149 158 179 187 187 185 184 185 182 177 170 166 156 146 140 138 139 134 129 125 118 114 114 113 113 114 110 109 106 106 105 102 97 93 89 88 91 92 89 83 80 76 76 76 73 66 62 64 62
73 229 56 113 59 69 28 126 143 255 205 165 140 204 195 5 108 105 129 83 75 250 256 147 240 226 101 176 133 156 160 194 196 189 192 187 176 171 186 192 195 188 183 181 184 182 176 176 176 166 158 152 149 149 144 139 132 128 125 124 122 120 120 119 114 111 109 107 102 94 92 92 90 90 91 93 92 86 78 73 68 70 67 61 53 44
188 124 60 137 172 23 359 297 68 37 355 109 213 197 82 248 338 217 256 114 213 256 269 144 214 212 147 241 123 155 204 206 205 194 190 185 177 189 197 199 195 187 181 177 181 181 183 181 177 174 169 162 158 149 142 137 132 133 133 135 132 133 128 125 119 112 109 106 101 99 94 89 89 91 91 92 92 85 83 77 74 71 65 52 45 41
184 195 128 20 28 61 267 232 87 45 352 264 104 94 176 184 196 152 286 245 201 240 267 202 219 243 200 204 133 196 200 203 202 183 177 188 193 199 199 200 193 177 168 177 186 185 183 181 181 182 174 165 156 148 141 139 143 144 144 142 138 131 128 123 115 112 106 105 102 101 98 98 93 91 92 92 90 84 74 65 60 60 59 56 43 40
311 231 128 67 138 86 246 209 191 167 154 57 113 136 8 301 260 160 203 338 27 273 39 250 132 244 186 214 176 195 199 195 177 179 199 199 193 192 197 194 193 186 182 182 185 187 184 186 187 181 174 171 164 157 151 153 157 159 153 147 130 124 127 127 125 125 118 113 111 108 104 95 96 93 94 87 85 77 69 63 63 64 67 58 46 39
182 38 230 111 296 169 184 205 215 166 164 146 179 178 155 89 329 343 18 199 229 249 243 291 276 211 174 169 183 189 190 187 176 192 193 192 194 199 197 191 188 180 175 182 184 182 183 184 186 177 173 164 158 158 162 167 168 162 158 153 150 144 142 136 132 127 123 121 120 116 109 107 101 95 88 86 83 87 83 78 73 66 62 62 43 22
170 189 205 130 172 215 211 35 339 296 263 182 171 186 182 149 169 190 225 84 258 225 249 211 260 98 134 50 351 8 1 301 203 194 182 191 199 196 193 196 182 170 180 184 183 180 182 183 183 172 166 160 162 170 175 173 168 163 167 162 156 149 140 137 137 133 129 124 116 108 102 96 92 92 99 97 92 90 94 86 69 52 40 39 31 18
217 87 108 184 199 189 10 17 252 302 277 344 282 192 185 195 175 195 237 179 60 250 25 325 333 267 58 14 8 339 329 311 228 181 203 197 200 200 195 175 167 177 176 182 180 180 185 182 179 176 175 175 177 176 175 171 173 170 168 162 161 151 145 141 137 126 121 112 101 96 98 106 109 110 106 105 106 97 84 77 63 48 38 22 12 3
115 154 166 80 60 32 246 231 192 222 285 195 244 26 169 203 198 223 238 136 204 145 196 206 248 269 137 80 339 311 298 290 277 209 196 181 167 168 158 138 159 169 165 165 178 186 191 182 171 166 174 178 184 182 177 173 173 170 169 169 164 156 147 144 141 133 119 111 113 121 122 117 119 120 121 111 96 89 80 72 68 47 31 17 8 357
171 200 174 145 146 150 220 185 192 180 204 229 198 170 230 70 72 78 95 74 248 204 190 205 245 162 203 46 317 312 229 218 206 197 188 172 148 167 173 174 166 163 163 183 191 192 183 179 180 184 186 187 183 179 177 177 177 173 173 167 163 148 153 143 142 134 129 130 130 134 131 128 123 115 108 101 91 80 72 59 47 37 21 13 2 1
207 143 175 179 184 187 196 201 202 187 198 167 206 143 203 173 142 135 204 177 235 176 169 224 243 125 184 239 264 207 228 192 162 169 176 192 188 192 177 178 183 184 192 190 189 186 191 188 183 191 192 184 181 180 180 178 176 174 167 164 154 152 152 146 141 145 142 143 142 141 132 123 113 105 98 91 86 71 57 45 34 20 15 10 357 358
166 35 253 234 224 235 6 49 22 83 88 194 192 185 183 206 191 196 199 200 219 157 206 223 229 227 178 176 202 185 216 185 167 177 182 195 205 199 192 194 190 192 192 192 191 186 173 180 196 199 188 184 181 180 180 179 174 170 161 156 169 158 149 147 149 149 149 151 144 136 125 114 108 106 98 89 75 65 51 40 28 15 8 357 353 358
82 214 234 262 288 338 71 94 211 163 162 203 169 207 188 180 183 199 206 223 112 126 249 186 165 231 243 169 180 181 215 231 210 195 205 217 206 199 198 193 195 198 204 192 176 180 190 198 196 187 184 184 183 180 181 174 175 173 171 165 163 160 150 153 153 151 152 146 136 128 121 115 115 104 90 83 78 65 53 36 21 10 352 357 357 1
136 208 201 139 264 335 12 80 160 179 235 203 209 191 191 191 182 201 219 200 157 210 235 123 166 227 244 186 186 181 185 188 192 202 201 201 186 171 174 191 200 208 206 196 198 198 198 194 188 187 184 186 181 180 177 173 173 165 162 150 156 159 162 159 155 152 147 138 129 126 127 124 111 99 96 92 86 74 48 32 13 358 354 1 357 351
107 240 130 175 208 97 343 53 152 196 153 254 227 222 200 185 196 203 217 197 202 238 253 265 186 242 213 154 190 201 156 165 172 118 112 175 200 190 197 209 213 214 205 199 200 200 197 194 188 189 183 181 182 182 174 178 177 168 163 161 157 160 159 159 158 149 141 134 130 130 127 120 115 113 109 100 91 73 35 22 5 348 354 354 351 342
153 265 94 128 196 182 97 328 16 328 247 251 248 231 217 186 189 206 221 224 226 246 251 254 257 259 189 161 191 83 128 104 119 189 198 197 190 196 206 213 218 218 211 206 202 198 193 194 194 186 187 187 183 179 182 181 165 159 158 158 161 162 163 163 151 143 140 135 135 133 133 132 130 130 122 106 92 68 39 16 350 339 340 343 343 331
174 215 62 65 178 206 72 155 145 67 217 250 259 238 195 174 195 220 223 218 215 230 236 242 245 254 175 160 117 167 162 186 202 200 192 207 207 207 212 219 218 217 212 206 197 190 196 198 194 191 189 188 190 189 183 172 164 164 170 165 164 157 156 156 147 142 138 135 139 142 141 139 140 138 128 112 98 90 46 356 320 323 331 329 331 328
183 148 156 170 211 231 13 185 146 136 311 281 257 199 181 197 202 212 223 218 215 209 224 230 239 244 153 158 181 197 197 209 217 210 216 215 214 217 219 218 213 214 210 199 193 195 194 193 194 193 193 191 193 189 184 164 159 173 168 165 157 145 156 153 148 142 140 143 148 146 138 145 151 144 131 111 97 91 8 306 297 301 318 321 324 309
135 163 153 178 217 116 329 49 179 175 236 239 63 134 180 195 198 199 222 214 211 203 221 227 256 101 137 167 197 203 198 211 215 216 199 212 214 217 220 217 220 216 210 204 201 199 197 197 200 200 196 193 189 182 167 163 169 164 153 145 144 156 157 151 148 145 143 147 149 146 148 155 151 139 122 112 105 104 253 272 277 313 303 305 301 299
172 181 179 135 182 145 156 144 193 216 236 70 298 284 281 205 183 204 221 209 205 208 231 244 213 180 194 195 200 203 190 59 38 193 213 222 231 216 197 213 218 216 216 210 204 203 199 196 194 192 189 187 167 149 148 162 156 140 143 150 154 160 153 154 148 150 150 152 152 149 157 158 148 131 132 135 149 191 230 240 282 300 299 304 300 297
173 173 135 180 112 79 141 190 214 232 43 31 12 51 104 79 342 150 314 271 229 207 211 231 239 226 203 214 226 50 292 289 272 239 229 229 204 195 207 216 214 208 211 209 206 210 198 195 192 187 180 156 145 161 168 166 152 148 154 157 157 156 156 152 152 153 155 154 158 163 162 153 143 145 149 154 172 185 250 228 282 304 303 294 288 286
174 162 177 205 174 204 186 190 231 323 315 250 114 207 175 163 177 170 201 218 188 204 201 223 236 241 236 156 101 110 130 250 276 266 197 208 201 212 216 217 191 190 195 205 209 216 195 185 180 176 151 155 165 161 169 149 151 150 148 159 160 155 156 158 160 164 161 162 162 162 156 152 148 152 155 157 176 189 228 243 291 296 308 301 295 294
243 196 185 211 217 189 221 246 249 252 243 267 152 130 113 29 138 162 171 259 139 203 199 209 226 234 253 115 106 106 143 285 272 272 156 199 201 212 226 273 302 204 196 169 156 167 169 172 162 152 157 160 161 163 152 154 157 153 155 160 158 161 164 170 175 166 163 165 156 155 151 149 151 151 156 162 169 185 230 295 292 282 315 303 304 300
320 313 236 207 225 179 207 220 235 237 240 41 131 134 143 226 123 131 100 266 157 200 216 194 246 247 234 196 157 163 182 242 257 263 118 191 200 202 203 223 224 218 201 189 179 171 170 168 160 154 149 155 162 168 160 157 153 152 161 162 165 169 170 182 176 164 163 155 150 147 142 147 149 150 153 160 160 154 236 276 280 299 295 286 292 289
184 191 178 218 217 219 203 220 225 218 264 184 195 182 196 176 137 100 292 265 138 212 207 187 211 229 222 171 152 177 196 226 248 268 91 201 172 179 192 203 201 203 196 180 196 178 148 136 126 145 163 176 180 158 159 156 163 168 162 167 163 173 186 184 161 146 138 137 139 138 141 142 146 150 151 152 142 166 223 281 279 279 295 300 293 296
177 197 206 208 211 215 219 233 266 267 240 163 168 164 151 169 115 194 242 152 180 200 196 173 209 218 153 155 179 191 223 220 338 42 45 90 130 177 212 81 147 177 177 181 177 140 147 165 172 174 182 181 160 156 159 158 156 173 174 160 170 193 181 138 127 133 136 137 136 137 143 146 149 148 140 129 146 163 240 273 291 303 296 295 293 295
50 131 295 229 227 218 216 222 230 276 178 152 277 144 168 138 206 218 202 113 160 197 194 194 205 204 168 186 194 216 230 128 86 43 155 199 184 138 144 162 148 133 91 127 138 161 166 177 192 181 159 152 146 156 162 162 172 174 161 168 193 176 118 125 132 132 135 142 141 141 144 149 140 138 132 130 135 173 242 238 289 290 287 291 300 299
176 157 200 198 169 61 149 237 213 231 130 129 125 71 264 166 269 81 124 3 154 167 158 197 213 208 188 215 221 227 214 144 198 210 212 211 208 160 168 172 190 189 174 160 175 199 177 176 193 197 179 154 158 163 166 168 177 171 160 191 176 123 130 133 134 138 142 137 140 147 151 148 143 132 134 128 145 166 260 278 269 272 272 277 287 284
195 155 209 217 187 187 196 209 214 253 119 177 149 171 187 190 138 158 143 149 183 172 168 177 211 209 196 212 217 227 229 208 202 236 242 240 235 213 201 213 208 183 176 199 195 183 181 190 186 179 163 162 166 168 169 177 182 182 184 190 133 130 129 133 136 138 137 143 151 153 153 146 135 133 131 136 160 197 233 254 270 274 261 270 276 279
205 193 184 194 180 174 206 210 94 112 150 189 204 85 159 153 136 172 147 154 150 205 178 180 210 193 203 212 230 232 249 223 225 212 206 223 220 216 211 206 197 195 193 190 197 181 186 198 189 172 161 180 175 181 181 188 184 177 189 165 131 146 145 140 138 139 148 154 156 156 148 139 132 124 133 163 188 221 232 234 226 262 246 248 266 270
358 133 256 87 231 39 352 109 84 81 199 200 244 133 79 102 114 138 187 175 223 157 168 183 205 181 191 202 209 241 227 241 227 217 213 227 226 228 230 226 221 223 206 175 166 180 197 190 156 168 182 187 186 187 186 196 186 186 187 135 144 146 145 138 138 145 150 151 156 151 142 137 139 150 168 212 219 220 232 232 246 251 266 255 258 258
200 137 165 207 271 138 239 114 171 171 167 204 220 171 92 84 185 184 192 213 220 147 191 249 220 196 179 168 197 219 235 230 234 238 220 226 232 229 213 213 215 197 189 193 202 167 167 177 184 195 190 197 193 190 189 187 199 165 123 148 146 142 136 134 139 142 151 158 150 144 150 147 156 162 176 205 218 220 225 221 224 233 249 246 248 254
255 171 143 216 123 191 284 160 215 29 298 296 254 202 221 209 204 213 219 218 183 169 198 213 175 218 163 187 208 211 235 238 228 242 237 228 227 222 217 222 220 209 215 207 162 169 177 185 194 202 193 203 192 186 173 167 169 147 130 140 143 130 129 137 157 158 157 156 155 155 158 163 157 193 209 195 200 227 224 215 213 230 236 233 237 242
111 122 209 170 155 149 44 325 219 10 300 247 225 233 246 231 203 215 217 213 197 213 227 219 206 211 186 216 195 207 231 245 230 231 236 244 237 232 227 226 225 216 189 172 177 180 193 197 201 205 201 205 164 163 161 158 142 143 149 143 138 140 140 149 146 129 137 151 150 153 154 173 181 202 207 201 221 239 238 237 234 236 251 239 238 241
115 206 149 117 126 177 174 187 164 131 212 215 216 213 214 223 212 224 199 197 213 220 221 223 232 223 225 232 212 199 211 235 232 217 230 233 233 232 230 229 236 231 208 185 159 184 217 231 222 215 210 195 148 161 163 153 147 150 146 136 141 148 142 139 141 146 160 161 164 156 165 186 192 195 198 201 232 260 269 236 228 229 237 260 247 240
194 197 149 188 167 169 204 201 183 189 211 209 166 186 211 218 196 210 224 225 226 218 218 216 239 224 214 232 221 210 224 230 242 220 222 238 237 232 228 224 220 220 218 172 170 189 210 217 213 218 215 189 156 161 164 158 155 152 145 147 150 155 143 140 149 163 160 168 179 174 177 187 190 186 188 197 210 241 280 302 257 241 252 257 258 261